| time (UTC) | temp C | wind direction | speed KPH | gust KPH | rain 1hr cm | rain 24hr cm | rain mn cm | humidity % | barometer mb |
| 20260504130539 | 11 | 119 | 0.0 | 0.0 | 0.00 | 0.00 | 0.00 | 85 | |
| 20260504110427 | 4 | 151 | 0.0 | 0.0 | 0.00 | 0.00 | 0.00 | 99 | |
| 20260504100344 | 5 | 151 | 0.0 | 0.0 | 0.00 | 0.00 | 0.00 | 99 | |
| 20260504081737 | 5 | 150 | 0.0 | 0.0 | 0.00 | 0.00 | 0.00 | 99 | |
| 20260504081233 | 5 | 150 | 0.0 | 0.0 | 0.00 | 0.00 | 0.00 | 98 | |
| 20260504080730 | 5 | 150 | 0.0 | 0.0 | 0.00 | 0.00 | 0.00 | 98 | |
| 20260504080226 | 5 | 150 | 0.0 | 0.0 | 0.00 | 0.00 | 0.00 | 98 | |
| 20260504070154 | 6 | 150 | 0.0 | 0.0 | 0.00 | 0.00 | 0.00 | 98 | |
| 20260504060120 | 6 | 150 | 0.0 | 0.0 | 0.00 | 0.00 | 0.00 | 97 | |
| 20260504050548 | 7 | 150 | 0.0 | 0.0 | 0.00 | 0.00 | 0.00 | 95 | |
| 20260504045541 | 7 | 150 | 0.0 | 0.0 | 0.00 | 0.00 | 0.00 | 94 | |
| 20260504045037 | 7 | 150 | 0.0 | 0.0 | 0.00 | 0.00 | 0.00 | 94 | |
| 20260504044535 | 7 | 150 | 0.0 | 0.0 | 0.00 | 0.00 | 0.00 | 93 | |
| 20260504044031 | 7 | 150 | 0.0 | 0.0 | 0.00 | 0.00 | 0.00 | 93 | |
| 20260504043528 | 7 | 150 | 0.0 | 0.0 | 0.00 | 0.00 | 0.00 | 92 | |
| 20260504043026 | 7 | 150 | 0.0 | 0.0 | 0.00 | 0.00 | 0.00 | 92 | |
| 20260504042523 | 7 | 150 | 0.0 | 0.0 | 0.00 | 0.00 | 0.00 | 91 | |
| 20260504042020 | 7 | 150 | 0.0 | 0.0 | 0.00 | 0.00 | 0.00 | 91 | |
| 20260504041515 | 8 | 150 | 0.0 | 0.0 | 0.00 | 0.00 | 0.00 | 91 | |
| 20260504041011 | 8 | 150 | 0.0 | 0.0 | 0.00 | 0.00 | 0.00 | 91 | |
| 20260504040509 | 8 | 150 | 0.0 | 0.0 | 0.00 | 0.00 | 0.00 | 91 | |
| 20260504040006 | 8 | 150 | 0.0 | 0.0 | 0.00 | 0.00 | 0.00 | 89 | |
| 20260504035503 | 8 | 150 | 0.0 | 0.0 | 0.00 | 0.00 | 0.00 | 89 | |
| 20260504034959 | 8 | 150 | 0.0 | 0.0 | 0.00 | 0.00 | 0.00 | 89 | |
| 20260504034457 | 8 | 150 | 0.0 | 0.0 | 0.00 | 0.00 | 0.00 | 88 | |
| 20260504033954 | 8 | 150 | 0.0 | 0.0 | 0.00 | 0.00 | 0.00 | 88 | |
| 20260504033451 | 8 | 150 | 0.0 | 0.0 | 0.00 | 0.00 | 0.00 | 88 | |
| 20260504032949 | 8 | 150 | 0.0 | 0.0 | 0.00 | 0.00 | 0.00 | 88 | |
| 20260504032445 | 8 | 150 | 0.0 | 0.0 | 0.00 | 0.00 | 0.00 | 87 | |
| 20260504031942 | 8 | 150 | 0.0 | 0.0 | 0.00 | 0.00 | 0.00 | 88 | |
| 20260504031439 | 8 | 150 | 0.0 | 0.0 | 0.00 | 0.00 | 0.00 | 87 | |
| 20260504030936 | 9 | 150 | 0.0 | 0.0 | 0.00 | 0.00 | 0.00 | 87 | |
| 20260504030433 | 9 | 150 | 0.0 | 0.0 | 0.00 | 0.00 | 0.00 | 86 | |
| 20260504025928 | 9 | 150 | 0.0 | 0.0 | 0.00 | 0.00 | 0.00 | 85 | |
| 20260504025426 | 9 | 150 | 0.0 | 0.0 | 0.00 | 0.00 | 0.00 | 84 | |
| 20260504024923 | 10 | 150 | 0.0 | 0.0 | 0.00 | 0.00 | 0.00 | 84 | |
| 20260504024420 | 10 | 150 | 0.0 | 0.0 | 0.00 | 0.00 | 0.00 | 83 | |
| 20260504023917 | 10 | 150 | 0.0 | 0.0 | 0.00 | 0.00 | 0.00 | 83 | |
| 20260504023413 | 10 | 149 | 0.0 | 0.0 | 0.00 | 0.00 | 0.00 | 83 | |
| 20260504022909 | 10 | 149 | 0.0 | 0.0 | 0.00 | 0.00 | 0.00 | 82 | |
| 20260504022405 | 10 | 149 | 0.0 | 0.0 | 0.00 | 0.00 | 0.00 | 81 | |
| 20260504021902 | 10 | 149 | 0.0 | 0.0 | 0.00 | 0.00 | 0.00 | 80 | |
| 20260504021359 | 10 | 149 | 0.0 | 0.0 | 0.00 | 0.00 | 0.00 | 78 | |
| 20260504020856 | 11 | 149 | 0.0 | 0.0 | 0.00 | 0.00 | 0.00 | 77 | |
| 20260504020353 | 11 | 148 | 0.0 | 0.0 | 0.00 | 0.00 | 0.00 | 76 | |
| 20260504015849 | 11 | 149 | 0.0 | 0.0 | 0.00 | 0.00 | 0.00 | 77 | |
| 20260504015345 | 11 | 183 | 0.0 | 0.0 | 0.00 | 0.00 | 0.00 | 75 | |
| 20260504014841 | 11 | 183 | 0.0 | 0.0 | 0.00 | 0.00 | 0.00 | 74 | |
| 20260504014337 | 11 | 183 | 0.0 | 0.0 | 0.00 | 0.00 | 0.00 | 73 | |
| 20260504013835 | 11 | 183 | 0.0 | 0.0 | 0.00 | 0.00 | 0.00 | 73 | |
| 20260504013333 | 11 | 183 | 0.0 | 0.0 | 0.00 | 0.00 | 0.00 | 72 | |
| 20260504012830 | 12 | 183 | 0.0 | 0.0 | 0.00 | 0.00 | 0.00 | 71 | |
| 20260504012327 | 12 | 183 | 0.0 | 0.0 | 0.00 | 0.00 | 0.00 | 70 | |
| 20260504011825 | 12 | 183 | 0.0 | 0.0 | 0.00 | 0.00 | 0.00 | 68 | |
| 20260504011321 | 12 | 183 | 0.0 | 0.0 | 0.00 | 0.00 | 0.00 | 68 | |
| 20260504010817 | 12 | 183 | 0.0 | 0.0 | 0.00 | 0.00 | 0.00 | 67 | |
| 20260504010313 | 13 | 183 | 0.0 | 0.0 | 0.00 | 0.00 | 0.00 | 66 | |
| 20260504005809 | 13 | 183 | 0.0 | 0.0 | 0.00 | 0.00 | 0.00 | 64 | |
| 20260504005306 | 13 | 183 | 0.0 | 0.0 | 0.00 | 0.00 | 0.00 | 61 | |
| 20260504004804 | 13 | 183 | 0.0 | 0.0 | 0.00 | 0.00 | 0.00 | 61 | |
| 20260504004301 | 14 | 183 | 0.0 | 0.0 | 0.00 | 0.00 | 0.00 | 61 | |
| 20260504003758 | 14 | 184 | 0.0 | 0.0 | 0.00 | 0.00 | 0.00 | 59 | |
| 20260504003255 | 15 | 183 | 0.0 | 0.0 | 0.00 | 0.00 | 0.00 | 57 | |
| 20260504002751 | 15 | 183 | 0.0 | 0.0 | 0.00 | 0.00 | 0.00 | 56 | |
| 20260504002248 | 16 | 184 | 0.0 | 0.0 | 0.00 | 0.00 | 0.00 | 54 | |
| 20260504001746 | 16 | 184 | 0.0 | 0.0 | 0.00 | 0.00 | 0.00 | 52 | |
| 20260504001243 | 16 | 183 | 0.0 | 0.0 | 0.00 | 0.00 | 0.00 | 51 | |
| 20260504000739 | 16 | 183 | 0.0 | 0.0 | 0.00 | 0.00 | 0.00 | 48 | |
| 20260504000236 | 17 | 184 | 0.0 | 0.0 | 0.00 | 0.00 | 0.00 | 46 | |
| 20260503235735 | 17 | 171 | 0.0 | 0.0 | 0.00 | 0.00 | 0.00 | 45 | |
| 20260503235231 | 17 | 185 | 0.0 | 0.0 | 0.00 | 0.00 | 0.00 | 44 | |
| 20260503234729 | 17 | 150 | 0.0 | 0.0 | 0.00 | 0.00 | 0.00 | 43 | |
| 20260503234227 | 17 | 140 | 0.0 | 1.6 | 0.00 | 0.00 | 0.00 | 43 | |
| 20260503233724 | 18 | 200 | 0.0 | 4.8 | 0.00 | 0.00 | 0.00 | 41 | |
| 20260503233219 | 18 | 301 | 1.6 | 3.2 | 0.00 | 0.00 | 0.00 | 41 | |
| 20260503232717 | 18 | 296 | 1.6 | 3.2 | 0.00 | 0.00 | 0.00 | 42 | |
| 20260503232214 | 18 | 241 | 0.0 | 4.8 | 0.00 | 0.00 | 0.00 | 44 | |
| 20260503231712 | 18 | 300 | 3.2 | 4.8 | 0.00 | 0.00 | 0.00 | 43 | |
| 20260503231208 | 18 | 179 | 0.0 | 0.0 | 0.00 | 0.00 | 0.00 | 43 | |
| 20260503230705 | 18 | 168 | 0.0 | 1.6 | 0.00 | 0.00 | 0.00 | 44 | |
| 20260503230202 | 18 | 160 | 0.0 | 1.6 | 0.00 | 0.00 | 0.00 | 43 | |
| 20260503225659 | 18 | 157 | 0.0 | 0.0 | 0.00 | 0.00 | 0.00 | 42 | |
| 20260503225159 | 18 | 7 | 3.2 | 9.7 | 0.00 | 0.00 | 0.00 | 42 | |
| 20260503224657 | 18 | 303 | 9.7 | 14.5 | 0.00 | 0.00 | 0.00 | 41 | |
| 20260503224155 | 18 | 333 | 1.6 | 3.2 | 0.00 | 0.00 | 0.00 | 41 | |
| 20260503223652 | 18 | 101 | 1.6 | 3.2 | 0.00 | 0.00 | 0.00 | 40 | |
| 20260503223149 | 18 | 259 | 3.2 | 3.2 | 0.00 | 0.00 | 0.00 | 40 | |
| 20260503222646 | 18 | 180 | 0.0 | 4.8 | 0.00 | 0.00 | 0.00 | 41 | |
| 20260503222143 | 18 | 236 | 1.6 | 1.6 | 0.00 | 0.00 | 0.00 | 40 | |
| 20260503221642 | 18 | 253 | 3.2 | 9.7 | 0.00 | 0.00 | 0.00 | 39 | |
| 20260503221139 | 19 | 164 | 0.0 | 1.6 | 0.00 | 0.00 | 0.00 | 42 | |
| 20260503220635 | 18 | 305 | 3.2 | 6.4 | 0.00 | 0.00 | 0.00 | 39 | |
| 20260503220132 | 19 | 166 | 0.0 | 3.2 | 0.00 | 0.00 | 0.00 | 43 | |
| 20260503215630 | 19 | 226 | 1.6 | 6.4 | 0.00 | 0.00 | 0.00 | 40 | |
| 20260503215126 | 19 | 296 | 3.2 | 6.4 | 0.00 | 0.00 | 0.00 | 42 | |
| 20260503214625 | 19 | 190 | 1.6 | 6.4 | 0.00 | 0.00 | 0.00 | 41 | |
| 20260503214120 | 19 | 154 | 0.0 | 3.2 | 0.00 | 0.00 | 0.00 | 43 | |
| 20260503213620 | 19 | 298 | 4.8 | 9.7 | 0.00 | 0.00 | 0.00 | 41 | |
| 20260503213116 | 19 | 168 | 0.0 | 3.2 | 0.00 | 0.00 | 0.00 | 43 | |
| 20260503212614 | 19 | 182 | 1.6 | 6.4 | 0.00 | 0.00 | 0.00 | 44 | |
| 20260503212111 | 19 | 155 | 0.0 | 1.6 | 0.00 | 0.00 | 0.00 | 44 | |
| 20260503211608 | 19 | 304 | 4.8 | 6.4 | 0.00 | 0.00 | 0.00 | 42 | |
| 20260503211103 | 19 | 178 | 0.0 | 3.2 | 0.00 | 0.00 | 0.00 | 44 | |
| 20260503210600 | 19 | 147 | 0.0 | 1.6 | 0.00 | 0.00 | 0.00 | 46 | |
| 20260503210056 | 18 | 332 | 6.4 | 9.7 | 0.00 | 0.00 | 0.00 | 44 | |
| 20260503205553 | 18 | 169 | 1.6 | 4.8 | 0.00 | 0.00 | 0.00 | 43 | |
| 20260503205049 | 19 | 272 | 4.8 | 11.3 | 0.00 | 0.00 | 0.00 | 41 | |
| 20260503204546 | 19 | 150 | 0.0 | 4.8 | 0.00 | 0.00 | 0.00 | 42 | |
| 20260503204043 | 19 | 7 | 1.6 | 3.2 | 0.00 | 0.00 | 0.00 | 44 | |
| 20260503203540 | 19 | 169 | 0.0 | 3.2 | 0.00 | 0.00 | 0.00 | 45 | |
| 20260503203037 | 19 | 162 | 1.6 | 1.6 | 0.00 | 0.00 | 0.00 | 42 | |
| 20260503202535 | 19 | 180 | 1.6 | 6.4 | 0.00 | 0.00 | 0.00 | 42 | |
| 20260503202033 | 19 | 188 | 1.6 | 3.2 | 0.00 | 0.00 | 0.00 | 40 | |
| 20260503201531 | 19 | 173 | 0.0 | 3.2 | 0.00 | 0.00 | 0.00 | 42 | |
| 20260503201028 | 19 | 160 | 0.0 | 3.2 | 0.00 | 0.00 | 0.00 | 41 | |
| 20260503200524 | 20 | 174 | 0.0 | 1.6 | 0.00 | 0.00 | 0.00 | 39 | |
| 20260503200021 | 20 | 197 | 1.6 | 3.2 | 0.00 | 0.00 | 0.00 | 36 | |
| 20260503195518 | 19 | 179 | 1.6 | 6.4 | 0.00 | 0.00 | 0.00 | 37 | |
| 20260503195015 | 20 | 268 | 11.3 | 14.5 | 0.00 | 0.00 | 0.00 | 38 | |
| 20260503194512 | 20 | 171 | 0.0 | 1.6 | 0.00 | 0.00 | 0.00 | 43 | |
| 20260503194012 | 19 | 277 | 3.2 | 4.8 | 0.00 | 0.00 | 0.00 | 41 | |
| 20260503193508 | 19 | 332 | 1.6 | 4.8 | 0.00 | 0.00 | 0.00 | 41 | |
| 20260503193004 | 20 | 200 | 0.0 | 1.6 | 0.00 | 0.00 | 0.00 | 42 | |
| 20260503192500 | 20 | 146 | 0.0 | 1.6 | 0.00 | 0.00 | 0.00 | 44 | |
| 20260503191955 | 20 | 106 | 1.6 | 9.7 | 0.00 | 0.00 | 0.00 | 39 | |
| 20260503191453 | 20 | 174 | 0.0 | 1.6 | 0.00 | 0.00 | 0.00 | 44 | |
| 20260503190949 | 20 | 92 | 1.6 | 1.6 | 0.00 | 0.00 | 0.00 | 41 | |
| 20260503190447 | 20 | 158 | 0.0 | 4.8 | 0.00 | 0.00 | 0.00 | 41 | |
| 20260503185944 | 20 | 154 | 3.2 | 4.8 | 0.00 | 0.00 | 0.00 | 41 | |
| 20260503185440 | 19 | 161 | 1.6 | 3.2 | 0.00 | 0.00 | 0.00 | 44 | |
| 20260503184940 | 20 | 174 | 3.2 | 3.2 | 0.00 | 0.00 | 0.00 | 41 | |
| 20260503184436 | 20 | 326 | 3.2 | 4.8 | 0.00 | 0.00 | 0.00 | 39 | |
| 20260503183933 | 20 | 215 | 3.2 | 3.2 | 0.00 | 0.00 | 0.00 | 44 | |
| 20260503183429 | 20 | 102 | 1.6 | 3.2 | 0.00 | 0.00 | 0.00 | 43 | |
| 20260503182926 | 19 | 275 | 1.6 | 3.2 | 0.00 | 0.00 | 0.00 | 41 | |
| 20260503182425 | 18 | 181 | 1.6 | 3.2 | 0.00 | 0.00 | 0.00 | 41 | |
| 20260503181922 | 19 | 160 | 1.6 | 4.8 | 0.00 | 0.00 | 0.00 | 43 | |
| 20260503181419 | 19 | 166 | 0.0 | 3.2 | 0.00 | 0.00 | 0.00 | 42 | |
| 20260503180915 | 18 | 132 | 1.6 | 3.2 | 0.00 | 0.00 | 0.00 | 45 | |
| 20260503180414 | 18 | 194 | 1.6 | 6.4 | 0.00 | 0.00 | 0.00 | 44 | |
| 20260503175911 | 18 | 74 | 3.2 | 4.8 | 0.00 | 0.00 | 0.00 | 43 | |
| 20260503175409 | 18 | 186 | 1.6 | 1.6 | 0.00 | 0.00 | 0.00 | 45 | |
| 20260503174904 | 18 | 186 | 1.6 | 3.2 | 0.00 | 0.00 | 0.00 | 47 | |
| 20260503174403 | 18 | 176 | 1.6 | 3.2 | 0.00 | 0.00 | 0.00 | 44 | |
| 20260503173902 | 18 | 99 | 1.6 | 1.6 | 0.00 | 0.00 | 0.00 | 47 | |
| 20260503173359 | 18 | 195 | 1.6 | 4.8 | 0.00 | 0.00 | 0.00 | 45 | |
| 20260503172856 | 18 | 297 | 3.2 | 4.8 | 0.00 | 0.00 | 0.00 | 42 | |
| 20260503172353 | 18 | 212 | 1.6 | 1.6 | 0.00 | 0.00 | 0.00 | 47 | |
| 20260503171849 | 18 | 159 | 1.6 | 3.2 | 0.00 | 0.00 | 0.00 | 47 | |
| 20260503171346 | 17 | 51 | 1.6 | 3.2 | 0.00 | 0.00 | 0.00 | 45 | |
| 20260503170844 | 17 | 343 | 1.6 | 3.2 | 0.00 | 0.00 | 0.00 | 47 | |
| 20260503170340 | 17 | 159 | 0.0 | 3.2 | 0.00 | 0.00 | 0.00 | 46 | |
| 20260503150732 | 15 | 54 | 1.6 | 3.2 | 0.00 | 0.00 | 0.00 | 55 | |
| 20260503150228 | 14 | 37 | 6.4 | 6.4 | 0.00 | 0.00 | 0.00 | 57 | |
| 20260503140153 | 12 | 174 | 0.0 | 1.6 | 0.00 | 0.00 | 0.00 | 68 |